Regional Weather Roundup
Issued by NWS

Home | Current Version | Previous Version | Text Only | Print | Product List | Glossary On
Versions: 1 2 3 4 5 6 7 8 9 10 11 12 13 14 15 16 17 18 19 20 21 22 23 24 25 26 27 28 29 30 31 32 33 34 35 36 37 38 39 40 41 42 43 44 45 46 47 48 49 50
000
ASUS43 KLSX 271559
RWRMO

WEATHER SUMMARY FOR MISSOURI
NATIONAL WEATHER SERVICE SPRINGFIELD MO
1100 AM CDT THU APR 27 2017

NOTE: "FAIR" INDICATES FEW OR NO CLOUDS BELOW 12,000 FEET WITH NO
       SIGNIFICANT WEATHER AND/OR OBSTRUCTIONS TO VISIBILITY.
       CURRENT SKY AND/OR WEATHER CONDITIONS ARE NOT AVAILABLE FOR
       CHILLICOTHE AND FARMINGTON.

MOZ001>031-035>038-043-044-053-054-271700-
...NORTHERN AND WESTERN MISSOURI...

CITY           SKY/WX    TMP DP  RH WIND       PRES   REMARKS
KANSAS CTY INT MOSUNNY   53  36  52 VRB7      29.75R
KANSAS C DTWN  SUNNY     54  37  52 W9        29.77R
LEE`S SUMMIT   SUNNY     51  37  58 SW9G20    29.77R
ST JOSEPH      SUNNY     52  37  56 W12G17    29.74S
CHILLICOTHE      N/A     50  38  63 VRB6      29.75R
KIRKSVILLE     CLOUDY    46  35  65 W9        29.73R

$$
MOZ066>068-077>081-088>096-101>105-271700-
...SOUTHWEST MISSOURI...

CITY           SKY/WX    TMP DP  RH WIND       PRES   REMARKS
SPRINGFIELD    MOSUNNY   52  40  63 W8        29.80R
JOPLIN         SUNNY     55  43  63 NW6       29.82R
BRANSON        MOSUNNY   52  39  62 W6        29.83R

$$
MOZ032>034-039>042-045>050-055>058-069>072-271700-
...CENTRAL MISSOURI...

CITY           SKY/WX    TMP DP  RH WIND       PRES   REMARKS
COLUMBIA       CLOUDY    49  39  68 W13       29.76R
JEFFERSON CITY CLOUDY    50  35  56 W13       29.79R
ROLLA          CLOUDY    47  40  76 W13       29.77R
SEDALIA        PTSUNNY   50  40  68 W10       29.78R
OSAGE BEACH    PTSUNNY   50  39  66 SW12G17   29.81R

$$
MOZ051-052-059>065-271700-
...EAST CENTRAL MISSOURI...

CITY           SKY/WX    TMP DP  RH WIND       PRES   REMARKS
ST LOUIS INTL  CLOUDY    50  40  68 W16G24    29.75R
SPIRIT OF STL  CLOUDY    48  40  73 W16       29.75R
ST CHARLES     CLOUDY    49  41  74 W16G23    29.74R

$$
MOZ072>076-082>087-097>100-106>115-271700-
...SOUTH CENTRAL AND SOUTHEAST MISSOURI...

CITY           SKY/WX    TMP DP  RH WIND       PRES   REMARKS
CAPE GIRARDEAU CLOUDY    51  43  74 W10       29.80R
FARMINGTON     CLOUDY    48  41  76 W8        29.78R
POPLAR BLUFF   CLOUDY    53  44  71 W7        29.80R
WEST PLAINS    PTSUNNY   51  42  71 SW6       29.81R

$$




USA.gov is the U.S. government's official web portal to all federal, state and local government web resources and services.